User: anonymous   Login
Location: Valencia
(39.4670°N, 0.3670°W)
Time: 20:19:12
(UTC+02:00)
Language:

ISS - Orbit

View from above orbital plane
View from above orbital plane
View from above satellite
View from above satellite

Ground track
Ground track

The orbit data is extracted from the following two-line orbital elements,

1 25544U 98067A   17267.50955981  .00016717  00000-0  10270-3 0  9024
2 25544  51.6384 263.1947 0004179 320.1639  39.9206 15.54214939 37198
Epoch (UTC): 24 September 2017 12:13:45
Eccentricity: 0.0004179
inclination: 51.6384°
perigee height: 401 km
apogee height: 407 km
right ascension of ascending node: 263.1947°
argument of perigee: 320.1639°
revolutions per day: 15.54214939
mean anomaly at epoch: 39.9206°
orbit number at epoch: 3719

The dashed part of the orbit path shows where the satellite is in the earth's shadow,  

DLR